Vorticity
-2 -2 -1 2 4 8 10 8 8 9 10 10 9 8 8 8 8 8 8 8 9 7 8 7 3 6 1 5 17 17 6 -2 7 6 9 16 16 12 6 7 3 9 2 4 9 8 3
7 10 7 8 6 4 3 5 8 8 6 7 8 8 8 9 9 9 8 8 9 9 8 4 7 5 7 27 15 16 16 6 11 -3 1 8 21 13 7 13 6 -2 -0 7 -1 3 5
9 10 7 4 3 4 8 6 6 6 7 9 7 7 8 8 9 9 10 9 9 10 9 8 8 10 5 -6 5 10 9 15 18 15 12 9 12 10 7 2 10 10 5 3 4 17 5
8 8 7 5 5 8 9 8 7 7 8 7 8 8 8 8 9 9 9 9 8 10 11 9 6 7 10 -1 5 7 6 12 11 18 14 2 1 5 6 8 4 4 3 16 24 11 8
7 7 8 7 6 7 8 7 7 8 8 8 8 8 8 8 8 8 9 9 9 9 9 10 8 7 14 14 19 20 3 14 15 15 13 17 6 -0 5 4 8 16 10 6 6 5 10
9 11 9 8 7 6 8 8 8 9 8 8 7 9 8 9 10 10 10 10 9 10 9 9 8 13 22 8 16 3 6 4 2 9 18 16 9 11 3 4 3 11 7 2 6 15 11
12 13 14 14 13 10 6 8 8 9 9 10 9 7 8 9 10 10 11 12 17 15 12 18 -8 19 13 -12 -1 4 2 17 16 13 12 11 13 2 10 3 -1 -4 -3 -2 -4 1 -10
10 9 10 12 14 15 15 8 7 8 8 9 10 9 9 8 11 12 12 11 11 9 19 16 17 8 14 5 4 5 5 6 8 13 20 9 3 14 25 10 -0 7 2 13 19 20 -27
7 6 5 5 6 12 20 20 12 7 9 9 13 10 11 9 11 12 13 15 12 9 11 19 18 14 13 18 16 35 27 1 -3 7 6 4 -14 34 6 7 9 18 -6 4 -16 13 12
8 8 10 11 11 8 5 11 25 13 8 10 11 11 11 11 10 11 7 6 6 10 24 15 16 33 26 18 13 11 21 37 9 5 -1 16 15 8 -4 2 10 10 8 3 -8 8 24
8 8 8 8 9 9 8 8 7 24 13 11 11 13 12 12 9 12 -0 9 12 9 14 21 11 9 14 0 4 4 -1 15 15 10 1 -1 -2 12 4 -6 18 2 35 -9 12 5 13
9 9 8 7 9 11 11 9 6 17 16 13 16 11 16 12 10 9 9 7 12 9 12 -13 2 14 13 6 15 -2 1 16 17 20 1 3 4 -4 18 9 7 8 24 12 1 -6 39
9 10 9 9 8 10 13 12 6 6 13 11 22 15 13 11 17 13 17 17 1 2 6 17 3 3 5 4 8 5 -2 15 5 6 28 21 1 0 6 15 9 34 16 26 25 19 5
9 10 10 10 9 11 15 15 13 9 11 5 24 18 19 20 12 6 23 -0 4 2 -4 26 -7 5 3 1 12 9 6 -1 1 7 -2 22 30 50 -1 2 -12 29 -21 -6 7 6 11
10 11 10 10 9 14 16 19 20 16 19 12 11 13 8 36 17 14 6 -2 17 18 -1 19 22 6 20 7 5 25 5 10 26 16 0 9 10 15 20 32 9 33 17 29 -24 4 13
11 11 10 10 15 17 19 17 6 16 10 20 -7 15 30 32 15 10 -5 -23 -0 -9 17 5 14 0 3 26 10 4 16 13 6 26 6 8 15 35 53 13 15 9 -13 13 17 12 6
13 11 11 14 15 21 9 22 18 12 19 15 7 10 28 32 18 7 -1 -1 40 -40 -3 6 7 -1 11 10 20 -2 17 14 3 7 23 2 15 -11 -27 37 -10 4 6 0 17 -16 6
13 13 12 14 12 17 15 19 7 14 35 7 12 3 17 26 0 17 -11 8 -6 -3 1 14 3 -13 2 -0 21 10 -5 15 12 18 7 -3 22 13 11 15 16 19 31 14 -26 27 1
14 13 12 13 8 13 30 13 20 7 19 7 9 8 12 26 8 -3 11 3 12 4 -5 16 -3 8 11 6 7 19 -1 13 3 9 6 6 -5 26 15 35 29 10 -5 27 24 -11 3
16 12 9 19 9 8 7 21 11 6 18 6 8 5 40 3 31 8 23 -0 7 15 26 2 8 4 4 8 5 -4 3 -11 12 8 -3 14 17 -12 -14 -15 -2 4 7 27 12 11 5
17 10 11 15 7 12 10 7 20 5 20 4 5 10 -16 17 25 6 6 -43 46 2 8 -3 23 -1 4 7 11 10 6 6 5 7 17 12 6 23 -9 9 10 38 5 18 22 2 16
13 9 14 13 13 11 4 6 11 27 12 13 1 -2 10 -12 1 25 14 21 2 -11 1 25 16 3 6 11 5 14 -6 9 11 5 13 2 12 10 10 26 5 4 11 -7 -17 18 65
12 11 16 9 13 18 -6 15 25 7 26 10 11 9 5 17 4 9 16 35 15 11 18 -5 23 4 6 4 10 2 20 5 -2 9 9 15 10 14 19 14 12 39 20 15 2 4 7
8 12 13 15 16 13 -2 7 14 25 12 13 2 2 6 17 -6 4 8 7 1 15 19 1 -1 13 9 3 -1 14 6 3 20 7 1 -7 -7 10 4 8 28 -5 1 -0 20 24 29
12 10 22 15 17 17 2 0 14 23 8 15 17 7 7 7 12 -6 1 7 8 8 10 6 5 8 6 3 10 39 20 27 6 7 5 12 11 -9 -3 -10 -24 -5 34 -16 2 9 17
6 20 17 14 11 9 10 6 6 4 9 5 23 4 4 3 18 8 -1 -4 16 10 8 13 8 4 15 17 15 22 3 2 24 38 56 18 5 2 -9 12 4 45 -7 12 14 10 22
16 19 8 9 6 7 7 8 8 9 24 -6 -1 17 7 0 14 -4 19 7 9 2 11 2 13 -7 29 12 -1 8 12 -0 11 18 4 37 12 6 14 -15 17 25 19 21 1 17 8
27 11 3 11 17 22 25 13 22 12 11 25 -4 19 2 -0 4 8 -2 8 7 2 10 13 15 19 54 13 18 10 6 11 25 5 5 26 -19 39 17 10 21 -26 0 15 30 3 7
13 4 8 15 14 12 13 14 16 21 16 14 5 17 12 8 -5 25 15 9 13 1 -8 12 -15 11 21 15 9 8 7 7 -6 20 14 31 -19 -16 6 29 -2 34 42 16 9 18 14
Height
3098 3096 3094 3093 3091 3090 3088 3086 3084 3082 3080 3077 3077 3075 3075 3074 3074 3073 3072 3072 3071 3071 3072 3071 3071 3069 3069 3067 3071 3068 3067 3070 3073 3074 3076 3079 3080 3084 3082 3085 3089 3089 3091 3093 3096 3098 3098
3093 3091 3089 3087 3086 3084 3083 3081 3078 3076 3073 3071 3070 3069 3068 3068 3068 3067 3066 3066 3065 3065 3066 3065 3065 3063 3062 3063 3063 3061 3061 3062 3066 3069 3072 3074 3076 3081 3081 3082 3084 3087 3088 3088 3090 3092 3093
3088 3086 3086 3083 3080 3078 3077 3075 3072 3070 3068 3067 3064 3063 3063 3063 3061 3062 3061 3059 3059 3059 3060 3059 3058 3057 3057 3060 3059 3057 3055 3059 3060 3061 3065 3070 3074 3076 3078 3079 3081 3082 3082 3081 3082 3084 3084
3082 3081 3079 3077 3075 3073 3071 3069 3066 3064 3062 3061 3060 3058 3056 3058 3056 3056 3054 3053 3053 3053 3053 3053 3052 3051 3050 3053 3053 3053 3053 3054 3056 3058 3060 3064 3066 3068 3070 3073 3075 3076 3076 3074 3076 3078 3079
3076 3075 3073 3071 3068 3066 3064 3062 3060 3059 3056 3055 3053 3051 3052 3051 3051 3049 3049 3047 3048 3047 3047 3046 3047 3045 3046 3047 3047 3048 3049 3049 3051 3053 3056 3060 3061 3062 3066 3068 3070 3071 3069 3069 3069 3073 3075
3070 3068 3066 3065 3062 3060 3058 3056 3053 3051 3050 3048 3047 3046 3045 3045 3045 3042 3043 3042 3042 3042 3040 3041 3040 3044 3041 3042 3041 3043 3044 3045 3047 3049 3050 3053 3056 3057 3060 3064 3063 3067 3066 3065 3063 3068 3070
3063 3061 3059 3057 3054 3052 3051 3049 3047 3045 3043 3042 3041 3040 3040 3039 3039 3038 3039 3038 3040 3037 3033 3036 3033 3034 3034 3035 3035 3036 3039 3040 3041 3043 3044 3046 3048 3048 3055 3060 3062 3064 3063 3062 3062 3063 3067
3057 3055 3053 3051 3048 3046 3043 3041 3039 3037 3035 3035 3034 3033 3034 3034 3033 3033 3033 3033 3032 3029 3026 3027 3027 3025 3028 3030 3029 3032 3036 3037 3037 3037 3040 3044 3040 3047 3052 3056 3058 3058 3058 3055 3054 3055 3061
3053 3050 3048 3045 3042 3039 3036 3033 3031 3030 3029 3028 3028 3026 3028 3028 3029 3029 3029 3030 3027 3025 3023 3020 3019 3018 3021 3024 3024 3028 3028 3029 3032 3034 3035 3036 3040 3045 3047 3051 3052 3052 3054 3056 3057 3054 3050
3047 3044 3041 3039 3036 3033 3029 3026 3023 3022 3021 3021 3020 3019 3021 3023 3026 3025 3024 3024 3023 3024 3020 3013 3012 3012 3016 3018 3020 3021 3022 3025 3027 3029 3034 3034 3037 3039 3042 3045 3049 3044 3053 3054 3055 3051 3048
3041 3038 3035 3032 3029 3026 3023 3020 3017 3014 3013 3013 3013 3013 3016 3016 3017 3022 3021 3022 3023 3023 3023 3011 3010 3011 3013 3017 3019 3020 3021 3020 3021 3024 3029 3029 3031 3034 3037 3039 3043 3042 3045 3046 3047 3048 3048
3034 3031 3028 3025 3021 3019 3016 3013 3010 3008 3005 3006 3006 3006 3010 3010 3013 3016 3018 3019 3021 3025 3013 3009 3008 3009 3012 3015 3017 3017 3019 3018 3019 3021 3022 3025 3029 3030 3031 3035 3038 3037 3036 3039 3041 3045 3041
3027 3024 3020 3017 3014 3011 3008 3005 3004 3002 3000 2999 2999 2998 3003 3004 3011 3011 3015 3017 3022 3016 3007 3007 3007 3008 3010 3013 3014 3014 3015 3017 3018 3018 3018 3021 3023 3026 3028 3030 3032 3032 3031 3034 3037 3037 3031
3019 3016 3012 3009 3006 3003 3000 2997 2996 2995 2995 2994 2993 2993 2995 2999 3004 3007 3010 3015 3014 3004 3004 3006 3007 3009 3009 3010 3013 3013 3014 3014 3015 3015 3016 3019 3020 3020 3022 3022 3027 3027 3027 3026 3025 3025 3021
3012 3008 3005 3002 2998 2995 2992 2990 2989 2988 2989 2989 2989 2989 2988 2994 2999 3003 3007 3007 3004 3002 3005 3004 3005 3005 3006 3007 3011 3011 3011 3011 3011 3012 3016 3017 3016 3016 3017 3018 3023 3020 3022 3025 3024 3024 3022
3004 3000 2997 2994 2990 2987 2985 2984 2984 2983 2984 2984 2984 2984 2987 2989 2993 2997 3001 2997 2998 3000 3001 3002 3003 3003 3003 3007 3009 3009 3010 3010 3009 3011 3013 3016 3015 3012 3013 3017 3017 3015 3021 3022 3023 3023 3020
2996 2993 2989 2987 2984 2981 2980 2979 2979 2979 2980 2980 2982 2982 2985 2985 2988 2991 2989 2991 2994 2998 3002 3004 3004 3003 3003 3005 3007 3007 3008 3010 3008 3009 3011 3014 3015 3012 3012 3012 3013 3016 3016 3019 3019 3019 3014
2988 2986 2983 2981 2979 2977 2976 2975 2976 2976 2976 2978 2979 2981 2982 2983 2985 2985 2985 2988 2993 2995 2998 3001 3002 3004 3004 3004 3005 3007 3008 3008 3007 3008 3010 3012 3010 3008 3007 3008 3010 3008 3010 3015 3015 3012 3013
2981 2979 2977 2976 2974 2973 2971 2972 2972 2973 2974 2975 2976 2977 2979 2980 2981 2984 2986 2989 2993 2994 2996 2999 3001 3002 3003 3004 3007 3006 3007 3005 3006 3008 3010 3011 3010 3007 3004 3006 3007 3005 3006 3010 3010 3012 3009
2975 2972 2971 2971 2970 2970 2969 2969 2970 2970 2972 2973 2975 2975 2975 2975 2978 2983 2986 2988 2990 2993 2993 2995 2996 2998 3000 3002 3005 3006 3005 3008 3006 3006 3007 3008 3009 3009 3009 3007 3005 3002 3003 3004 3007 3007 3006
2968 2966 2965 2965 2965 2965 2966 2966 2966 2968 2969 2970 2972 2974 2975 2975 2977 2980 2984 2983 2986 2989 2991 2994 2995 2997 2999 3001 3002 3003 3004 3004 3005 3005 3005 3006 3005 3005 3004 3005 3005 2998 3000 2998 3002 3003 3003
2961 2960 2959 2959 2959 2960 2962 2963 2963 2965 2966 2966 2969 2974 2975 2974 2976 2979 2981 2982 2984 2987 2990 2990 2992 2995 2997 2999 3001 3001 3000 3001 3000 3003 3003 3004 3002 3002 3001 3001 3001 3000 2997 2996 2997 2998 2998
2954 2954 2953 2953 2953 2955 2957 2958 2959 2960 2962 2961 2966 2972 2973 2973 2974 2977 2978 2981 2982 2986 2986 2988 2989 2990 2991 2993 2994 2996 2996 2998 2998 3001 3001 3002 3002 3001 2997 2998 2996 2995 2992 2994 2995 2995 2997
2948 2947 2947 2947 2947 2949 2952 2953 2953 2954 2956 2959 2965 2970 2970 2968 2972 2974 2976 2980 2980 2981 2984 2986 2987 2986 2988 2989 2990 2991 2992 2993 2993 2996 2999 2999 3000 3000 2997 2997 2993 2990 2991 2991 2993 2994 2995
2941 2940 2940 2940 2942 2945 2948 2949 2948 2950 2952 2954 2961 2963 2966 2966 2969 2972 2974 2977 2979 2979 2980 2982 2984 2983 2984 2987 2988 2989 2989 2989 2987 2988 2990 2994 2997 2998 2997 2996 2992 2986 2987 2991 2992 2993 2991
2933 2933 2933 2935 2937 2939 2942 2944 2945 2947 2948 2951 2955 2960 2962 2963 2964 2970 2972 2974 2974 2977 2978 2980 2982 2981 2982 2983 2986 2985 2985 2985 2984 2981 2981 2986 2990 2994 2995 2993 2990 2987 2986 2985 2988 2990 2989
2926 2927 2928 2930 2932 2934 2935 2937 2940 2942 2944 2947 2952 2955 2958 2958 2962 2967 2968 2970 2972 2974 2975 2977 2977 2978 2978 2979 2980 2984 2982 2983 2980 2978 2978 2978 2982 2984 2989 2991 2986 2985 2983 2984 2986 2992 2986
2919 2920 2922 2923 2925 2926 2928 2931 2933 2936 2940 2942 2948 2949 2952 2955 2959 2963 2966 2967 2969 2971 2973 2975 2976 2975 2975 2977 2981 2981 2979 2978 2976 2974 2974 2972 2978 2981 2986 2988 2987 2983 2981 2983 2982 2980 2980
2913 2914 2915 2916 2918 2920 2922 2925 2927 2930 2934 2937 2940 2944 2949 2950 2954 2956 2960 2963 2967 2970 2970 2971 2972 2974 2974 2975 2977 2977 2977 2976 2975 2971 2968 2966 2971 2974 2978 2979 2979 2978 2976 2977 2978 2978 2977